Weather History for Lambertville, MI

Change the Weather History Date:

Thursday, November 8, 2012

  Actual Average (KTOL) Record (KTOL)
Temperature  
Mean Temperature 36 °F 45 °F  
Max Temperature 49 °F 54 °F 73 °F (1945)
Min Temperature 22 °F 36 °F 9 °F (1991)
Degree Days  
Heating Degree Days 30 20  
Month to date heating degree days 153  
Since 1 July heating degree days 679  
Cooling Degree Days 0 0  
Month to date cooling degree days 0  
Year to date cooling degree days 793  
Moisture  
Dew Point 28 °F    
Average Humidity 76    
Maximum Humidity 90    
Minimum Humidity 48    
Precipitation  
Precipitation 0.00 in 0.09 in 0.98 in (1966)
Month to date precipitation 0.72  
Year to date precipitation 29.42  
Snow  
Snow 0.00 in 0.00 in - ()
Month to date snowfall 0.2  
Since 1 July snowfall 0.4  
Since 1 September snowfall 0.4  
Snow Depth -    
Sea Level Pressure  
Sea Level Pressure 30.17 in    
Wind  
Wind Speed 0 mph (West)    
Max Wind Speed 7 mph    
Max Gust Speed -    
Visibility 7 miles    
Events      
T = Trace of Precipitation, MM = Missing Value Source: NWS Daily Summary

Daily Weather History Graph

Daily Weather History Graph

Search for Another Location

Airport:

Trip Planner

Search our weather history database for the weather conditions in past years. The results will help you decide how hot, cold, wet, or windy it might be!

Date:

Astronomy

Nov. 08, 2012 Rise Set
Actual Time 7:15 AM EST 5:20 PM EST
Civil Twilight 6:46 AM EST 5:49 PM EST
Nautical Twilight 6:13 AM EST 6:23 PM EST
Astronomical Twilight 5:40 AM EST 6:55 PM EST
Moon 1:05 AM EST (11/8) 2:05 PM EST (11/8)
Length of Visible Light 11h 03m
Length of Day
10h 04m
Waning Crescent, 33% of the Moon is Illuminated
Nov 8
Waning Crescent
Nov 13
New
Nov 20
First Quarter
Nov 28
Full
Dec 6
Last Quarter

Hourly Weather History & Observations

Time (EST) Temp. Windchill Dew Point Humidity Pressure Visibility Wind Dir Wind Speed Gust Speed Precip Events Conditions
12:15 AM 28.4 °F - 24.6 °F 86% 30.15 in 7.0 mi Calm Calm - N/A   Clear
12:35 AM 28.0 °F - 24.3 °F 86% 30.15 in 7.0 mi Calm Calm - N/A   Clear
12:55 AM 28.2 °F - 25.0 °F 88% 30.15 in 7.0 mi Calm Calm - N/A   Clear
1:15 AM 27.1 °F - 23.9 °F 88% 30.15 in 5.0 mi Calm Calm - N/A   Clear
1:34 AM 27.0 °F - 24.1 °F 89% 30.15 in 4.0 mi Calm Calm - N/A   Clear
1:55 AM 27.3 °F - 24.6 °F 90% 30.15 in 4.0 mi Calm Calm - N/A   Clear
2:15 AM 25.7 °F - 22.5 °F 88% 30.15 in 5.0 mi Calm Calm - N/A   Clear
2:55 AM 24.6 °F - 21.7 °F 89% 30.15 in 5.0 mi Calm Calm - N/A   Clear
3:15 AM 25.5 °F - 22.6 °F 89% 30.15 in 5.0 mi Calm Calm - N/A   Clear
3:35 AM 24.6 °F - 21.7 °F 89% 30.15 in 5.0 mi Calm Calm - N/A   Clear
3:55 AM 25.7 °F - 22.8 °F 89% 30.16 in 4.0 mi Calm Calm - N/A   Clear
4:14 AM 25.0 °F - 22.3 °F 89% 30.16 in 5.0 mi Calm Calm - N/A   Clear
4:35 AM 24.6 °F - 21.9 °F 89% 30.17 in 5.0 mi Calm Calm - N/A   Clear
4:55 AM 24.6 °F - 22.1 °F 90% 30.17 in 4.0 mi Calm Calm - N/A   Clear
5:14 AM 24.3 °F - 21.4 °F 89% 30.17 in 5.0 mi Calm Calm - N/A   Clear
5:35 AM 23.9 °F - 21.2 °F 89% 30.18 in 5.0 mi Calm Calm - N/A   Clear
5:55 AM 23.7 °F - 21.0 °F 89% 30.18 in 5.0 mi Calm Calm - N/A   Clear
6:15 AM 23.9 °F - 21.2 °F 89% 30.19 in 4.0 mi Calm Calm - N/A   Clear
6:35 AM 24.3 °F - 21.7 °F 90% 30.19 in 4.0 mi Calm Calm - N/A   Clear
6:54 AM 24.4 °F - 21.6 °F 89% 30.19 in 3.0 mi Calm Calm - N/A   Clear
7:15 AM 22.6 °F - 19.6 °F 88% 30.20 in 4.0 mi Calm Calm - N/A   Clear
7:54 AM 24.8 °F - 22.1 °F 89% 30.21 in 2.0 mi Calm Calm - N/A   Clear
8:15 AM 27.9 °F - 25.2 °F 90% 30.22 in 3.0 mi Calm Calm - N/A   Clear
8:35 AM 30.6 °F - 27.3 °F 88% 30.22 in 3.0 mi Calm Calm - N/A   Clear
8:55 AM 32.0 °F - 28.4 °F 87% 30.22 in 4.0 mi Calm Calm - N/A   Clear
9:15 AM 34.2 °F - 30.2 °F 85% 30.22 in 5.0 mi Calm Calm - N/A   Clear
9:34 AM 37.4 °F - 31.3 °F 79% 30.23 in 7.0 mi Calm Calm - N/A   Clear
9:55 AM 39.4 °F - 31.5 °F 73% 30.23 in 7.0 mi Calm Calm - N/A   Clear
10:15 AM 40.5 °F - 30.7 °F 68% 30.23 in 10.0 mi Calm Calm - N/A   Clear
10:35 AM 41.9 °F - 30.4 °F 64% 30.23 in 10.0 mi Calm Calm - N/A   Clear
10:55 AM 43.3 °F - 30.4 °F 60% 30.22 in 10.0 mi Calm Calm - N/A   Clear
11:35 AM 45.1 °F - 30.0 °F 55% 30.22 in 10.0 mi Calm Calm - N/A   Clear
11:55 AM 45.1 °F - 29.3 °F 54% 30.20 in 10.0 mi Calm Calm - N/A   Clear
12:15 PM 46.4 °F 45.2 °F 30.4 °F 54% 30.19 in 10.0 mi West 3.5 mph - N/A   Clear
12:35 PM 47.1 °F - 30.7 °F 53% 30.19 in 10.0 mi WNW 3.5 mph - N/A   Clear
12:54 PM 48.0 °F - 30.9 °F 52% 30.19 in 10.0 mi Calm Calm - N/A   Clear
1:15 PM 47.7 °F - 30.7 °F 52% 30.18 in 10.0 mi WSW 5.8 mph - N/A   Clear
1:35 PM 48.9 °F - 31.1 °F 50% 30.17 in 10.0 mi WNW 4.6 mph - N/A   Clear
1:55 PM 48.6 °F - 30.9 °F 51% 30.17 in 10.0 mi WNW 5.8 mph - N/A   Clear
2:15 PM 48.6 °F - 30.2 °F 49% 30.16 in 10.0 mi Calm Calm - N/A   Clear
2:35 PM 49.6 °F - 30.6 °F 48% 30.16 in 10.0 mi West 6.9 mph - N/A   Clear
2:55 PM 49.1 °F - 31.1 °F 50% 30.15 in 10.0 mi West 4.6 mph - N/A   Clear
3:15 PM 48.9 °F - 31.5 °F 51% 30.15 in 10.0 mi Calm Calm - N/A   Clear
3:35 PM 49.5 °F - 31.6 °F 50% 30.15 in 10.0 mi WNW 3.5 mph - N/A   Clear
3:55 PM 49.1 °F - 31.8 °F 51% 30.16 in 10.0 mi West 4.6 mph - N/A   Clear
4:14 PM 48.6 °F - 31.8 °F 52% 30.16 in 10.0 mi Calm Calm - N/A   Scattered Clouds
4:35 PM 48.6 °F - 32.0 °F 53% 30.15 in 10.0 mi Calm Calm - N/A   Scattered Clouds
4:55 PM 47.7 °F - 31.8 °F 54% 30.15 in 10.0 mi Calm Calm - N/A   Clear
5:15 PM 45.5 °F - 31.8 °F 59% 30.15 in 7.0 mi Calm Calm - N/A   Clear
5:35 PM 41.5 °F 38.6 °F 31.3 °F 67% 30.15 in 10.0 mi East 4.6 mph - N/A   Clear
5:55 PM 41.4 °F - 32.0 °F 69% 30.15 in 7.0 mi Calm Calm - N/A   Clear
6:15 PM 38.3 °F - 31.3 °F 76% 30.15 in 10.0 mi Calm Calm - N/A   Clear
6:35 PM 36.9 °F - 31.1 °F 80% 30.16 in 7.0 mi Calm Calm - N/A   Clear
6:54 PM 36.5 °F - 31.1 °F 81% 30.16 in 7.0 mi Calm Calm - N/A   Clear
7:15 PM 34.9 °F - 30.6 °F 84% 30.16 in 7.0 mi Calm Calm - N/A   Clear
7:34 PM 34.5 °F - 30.4 °F 85% 30.15 in 7.0 mi Calm Calm - N/A   Clear
7:55 PM 34.0 °F - 30.4 °F 87% 30.16 in 7.0 mi Calm Calm - N/A   Clear
8:15 PM 33.6 °F - 30.0 °F 87% 30.15 in 7.0 mi Calm Calm - N/A   Clear
8:34 PM 33.8 °F - 30.2 °F 87% 30.15 in 7.0 mi Calm Calm - N/A   Clear
8:55 PM 32.5 °F - 29.3 °F 88% 30.15 in 7.0 mi Calm Calm - N/A   Clear
9:15 PM 32.2 °F - 29.3 °F 89% 30.15 in 5.0 mi Calm Calm - N/A   Clear
9:35 PM 31.6 °F - 28.2 °F 87% 30.15 in 5.0 mi Calm Calm - N/A   Clear
9:55 PM 31.3 °F - 27.5 °F 86% 30.15 in 5.0 mi Calm Calm - N/A   Clear
10:14 PM 30.9 °F - 27.9 °F 88% 30.15 in 3.0 mi Calm Calm - N/A   Clear
10:35 PM 31.6 °F - 28.4 °F 88% 30.15 in 4.0 mi Calm Calm - N/A   Clear
10:55 PM 30.0 °F - 27.3 °F 90% 30.15 in 3.0 mi Calm Calm - N/A   Clear
11:14 PM 30.4 °F - 27.5 °F 89% 30.15 in 3.0 mi Calm Calm - N/A   Clear
11:35 PM 30.2 °F - 27.1 °F 88% 30.15 in 3.0 mi Calm Calm - N/A   Clear
11:55 PM 29.8 °F - 27.0 °F 89% 30.15 in 2.5 mi Calm Calm - N/A   Clear